Portada
METAR-TAF:

METAR-TAF

Aeroports :

Londres Southend, Anglaterra

latitud: 51-34N, longitud: 000-42E, altitud: 15 m

Observació

L'informe es va fer fa 16 minuts, a les 20:20 UTC
Vent 2 kt amb direcció variable
Temperatura 17°C
Humitat 88%
Pressió 1018 hPa
Visibilitat: 8000 m

METAR: EGMC 242020Z VRB02KT 8000 NSC 17/15 Q1018

Hora: 21:36 (20:36 UTC)

Pronòstic

L'informe es va fer fa 33 minuts, a les 20:03 UTC
Pronòstic vàlid del 24 a les 21 UTC al 25 a les 06 UTC
Vent 3 kt del Nord-Est
Visibilitat: 7000 m
Escasses núvols a una alçada de 4500 ft
Probabilitat 40% :
Temporalment
l' 24 a les 21 UTC al 25 a les 02 UTC
Visibilitat 10 km o més
Probabilitat 30% :
Temporalment
l' 25 a les 02 UTC al 25 a les 06 UTC
Visibilitat: 4000 m
boirina

TAF: EGMC 242003Z 2421/2506 05003KT 7000 FEW045 PROB40 TEMPO 2421/2502 9999 PROB30 TEMPO 2502/2506 4000 BR

Observacions i pronòstics meteorològics de més de 4000 aeroports (METAR i TAF).

Les estacions disponibles són els punts grocs i vermells al mapa.

Posi el ratolí al punt desitjat per veure el nom de l'estació.

Feu clic per veure les observacions i els pronòstics meteorològics.

Per canviar el mapa: feu clic els botons verds amb una creu de color negre per apropar; al botó verd amb un guió per allunyar la imatge; o en les fletxes verdes per a mapes adjacents.


METAR-TAF: